Time,TemperatureF,DewpointF,PressureIn,WindDirection,WindDirectionDegrees,WindSpeedMPH,WindSpeedGustMPH,Humidity,HourlyPrecipIn,Conditions,Clouds,dailyrainin,SolarRadiationWatts/m^2,SoftwareType,DateUTC
2013-07-17 02:12:00,84.0,44.0,-100.00,SE,143,5.0,7.0,25,-99.99,,,-99.99,0.000000,,2013-07-17 09:12:00,
2013-07-17 02:22:00,84.0,44.0,-100.00,SE,143,5.0,7.0,25,-99.99,,,-99.99,0.000000,,2013-07-17 09:22:00,
2013-07-17 02:32:00,84.0,44.0,-100.00,SE,143,5.0,7.0,25,-99.99,,,-99.99,0.000000,,2013-07-17 09:32:00,
2013-07-17 02:43:00,84.0,44.0,-100.00,SE,143,5.0,7.0,25,-99.99,,,-99.99,0.000000,,2013-07-17 09:43:00,
2013-07-17 03:11:00,81.0,41.0,-100.00,South,183,4.0,7.0,24,0.00,,,-99.99,0.000000,,2013-07-17 10:11:00,
2013-07-17 03:22:00,81.0,41.0,-100.00,South,183,4.0,7.0,24,0.00,,,-99.99,0.000000,,2013-07-17 10:22:00,
2013-07-17 03:32:00,81.0,41.0,-100.00,South,183,4.0,7.0,24,0.00,,,-99.99,0.000000,,2013-07-17 10:32:00,
2013-07-17 03:43:00,81.0,41.0,-100.00,South,183,4.0,7.0,24,0.00,,,-99.99,0.000000,,2013-07-17 10:43:00,
2013-07-17 04:11:00,82.0,41.0,-100.00,SSW,206,4.0,9.0,23,0.00,,,-99.99,0.000000,,2013-07-17 11:11:00,
2013-07-17 04:22:00,82.0,41.0,-100.00,SSW,206,4.0,9.0,23,0.00,,,-99.99,0.000000,,2013-07-17 11:22:00,
2013-07-17 04:32:00,82.0,41.0,-100.00,SSW,206,4.0,9.0,23,0.00,,,-99.99,0.000000,,2013-07-17 11:32:00,
2013-07-17 04:42:00,82.0,41.0,-100.00,SSW,206,4.0,9.0,23,0.00,,,-99.99,0.000000,,2013-07-17 11:42:00,
2013-07-17 05:22:00,77.0,42.0,-100.00,South,178,4.0,6.0,29,0.00,,,-99.99,0.000000,,2013-07-17 12:22:00,
2013-07-17 05:32:00,77.0,42.0,-100.00,South,178,4.0,6.0,29,0.00,,,-99.99,0.000000,,2013-07-17 12:32:00,
2013-07-17 05:42:00,77.0,42.0,-100.00,South,178,4.0,6.0,29,0.00,,,-99.99,0.000000,,2013-07-17 12:42:00,
2013-07-17 06:43:00,74.0,45.0,-100.00,SSW,197,2.0,6.0,36,0.00,,,-99.99,1.000000,,2013-07-17 13:43:00,
2013-07-17 07:43:00,77.0,51.0,-100.00,South,178,2.0,5.0,41,0.00,,,-99.99,60.000000,,2013-07-17 14:43:00,
2013-07-17 08:12:00,88.0,53.0,-100.00,SSE,150,2.0,4.0,30,-99.99,,,-99.99,213.000000,,2013-07-17 15:12:00,
2013-07-17 08:21:00,88.0,53.0,-100.00,SSE,150,2.0,4.0,30,-99.99,,,-99.99,213.000000,,2013-07-17 15:21:00,
2013-07-17 08:32:00,88.0,53.0,-100.00,SSE,150,2.0,4.0,30,-99.99,,,-99.99,213.000000,,2013-07-17 15:32:00,
2013-07-17 08:42:00,88.0,53.0,-100.00,SSE,150,2.0,4.0,30,-99.99,,,-99.99,213.000000,,2013-07-17 15:42:00,
2013-07-17 10:11:00,101.0,43.0,-100.00,SSW,202,3.0,5.0,14,-99.99,,,-99.99,650.000000,,2013-07-17 17:11:00,
2013-07-17 10:32:00,101.0,43.0,-100.00,SSW,202,3.0,5.0,14,-99.99,,,-99.99,650.000000,,2013-07-17 17:32:00,
2013-07-17 10:43:00,101.0,43.0,-100.00,SSW,202,3.0,5.0,14,-99.99,,,-99.99,650.000000,,2013-07-17 17:43:00,
2013-07-17 11:22:00,105.0,53.0,-100.00,SSE,152,3.0,7.0,18,0.00,,,0.00,807.000000,,2013-07-17 18:22:00,
2013-07-17 11:32:00,105.0,53.0,-100.00,SSE,152,3.0,7.0,18,0.00,,,0.00,807.000000,,2013-07-17 18:32:00,
2013-07-17 11:43:00,105.0,53.0,-100.00,SSE,152,3.0,7.0,18,0.00,,,0.00,807.000000,,2013-07-17 18:43:00,
2013-07-17 12:22:00,105.0,57.0,-100.00,SSE,158,6.0,9.0,21,0.00,,,0.00,928.000000,,2013-07-17 19:22:00,
2013-07-17 12:32:00,105.0,57.0,-100.00,SSE,158,6.0,9.0,21,0.00,,,0.00,928.000000,,2013-07-17 19:32:00,
2013-07-17 12:43:00,105.0,57.0,-100.00,SSE,158,6.0,9.0,21,0.00,,,0.00,928.000000,,2013-07-17 19:43:00,
2013-07-17 13:11:00,107.0,57.0,-100.00,SSE,163,7.0,12.0,20,0.00,,,0.00,987.000000,,2013-07-17 20:11:00,
2013-07-17 13:22:00,107.0,57.0,-100.00,SSE,163,7.0,12.0,20,0.00,,,0.00,987.000000,,2013-07-17 20:22:00,
2013-07-17 13:33:00,107.0,57.0,-100.00,SSE,163,7.0,12.0,20,0.00,,,0.00,987.000000,,2013-07-17 20:33:00,
2013-07-17 13:43:00,107.0,57.0,-100.00,SSE,163,7.0,12.0,20,0.00,,,0.00,987.000000,,2013-07-17 20:43:00,
2013-07-17 14:12:00,109.0,59.0,-100.00,SSW,210,6.0,11.0,20,0.00,,,0.00,987.000000,,2013-07-17 21:12:00,
2013-07-17 14:22:00,109.0,59.0,-100.00,SSW,210,6.0,11.0,20,0.00,,,0.00,987.000000,,2013-07-17 21:22:00,
2013-07-17 14:32:00,109.0,59.0,-100.00,SSW,210,6.0,11.0,20,0.00,,,0.00,987.000000,,2013-07-17 21:32:00,
2013-07-17 14:42:00,109.0,59.0,-100.00,SSW,210,6.0,11.0,20,0.00,,,0.00,987.000000,,2013-07-17 21:42:00,
2013-07-17 15:11:00,109.0,56.0,-100.00,SSW,200,5.0,12.0,18,0.00,,,0.00,895.000000,,2013-07-17 22:11:00,
2013-07-17 15:21:00,109.0,56.0,-100.00,SSW,200,5.0,12.0,18,0.00,,,0.00,895.000000,,2013-07-17 22:21:00,
2013-07-17 15:32:00,109.0,56.0,-100.00,SSW,200,5.0,12.0,18,0.00,,,0.00,895.000000,,2013-07-17 22:32:00,
2013-07-17 15:43:00,109.0,56.0,-100.00,SSW,200,5.0,12.0,18,0.00,,,0.00,895.000000,,2013-07-17 22:43:00,
2013-07-17 16:22:00,109.0,56.0,-100.00,South,173,4.0,16.0,18,0.00,,,0.00,759.000000,,2013-07-17 23:22:00,
2013-07-17 16:32:00,109.0,56.0,-100.00,South,173,4.0,16.0,18,0.00,,,0.00,759.000000,,2013-07-17 23:32:00,
2013-07-17 16:42:00,109.0,56.0,-100.00,South,173,4.0,16.0,18,0.00,,,0.00,759.000000,,2013-07-17 23:42:00,
2013-07-17 17:11:00,112.0,58.0,-100.00,SSE,155,4.0,9.0,18,0.00,,,0.00,657.000000,,2013-07-18 00:11:00,
2013-07-17 17:22:00,112.0,58.0,-100.00,SSE,155,4.0,9.0,18,0.00,,,0.00,657.000000,,2013-07-18 00:22:00,
2013-07-17 17:33:00,112.0,58.0,-100.00,SSE,155,4.0,9.0,18,0.00,,,0.00,657.000000,,2013-07-18 00:33:00,
2013-07-17 17:42:00,112.0,58.0,-100.00,SSE,155,4.0,9.0,18,0.00,,,0.00,657.000000,,2013-07-18 00:42:00,
2013-07-17 18:22:00,108.0,48.0,-100.00,WSW,250,4.0,14.0,14,0.00,,,-99.99,372.000000,,2013-07-18 01:22:00,
2013-07-17 18:32:00,108.0,48.0,-100.00,WSW,250,4.0,14.0,14,0.00,,,-99.99,372.000000,,2013-07-18 01:32:00,
2013-07-17 18:42:00,108.0,48.0,-100.00,WSW,250,4.0,14.0,14,0.00,,,-99.99,372.000000,,2013-07-18 01:42:00,
2013-07-17 19:11:00,104.0,49.0,-100.00,SW,222,7.0,11.0,16,0.00,,,0.00,137.000000,,2013-07-18 02:11:00,
2013-07-17 19:21:00,104.0,49.0,-100.00,SW,222,7.0,11.0,16,0.00,,,0.00,137.000000,,2013-07-18 02:21:00,
2013-07-17 19:32:00,104.0,49.0,-100.00,SW,222,7.0,11.0,16,0.00,,,0.00,137.000000,,2013-07-18 02:32:00,
2013-07-17 19:42:00,104.0,49.0,-100.00,SW,222,7.0,11.0,16,0.00,,,0.00,137.000000,,2013-07-18 02:42:00,
2013-07-17 20:11:00,101.0,50.0,-100.00,WSW,241,4.0,14.0,18,0.00,,,0.00,44.000000,,2013-07-18 03:11:00,
2013-07-17 20:22:00,101.0,50.0,-100.00,WSW,241,4.0,14.0,18,0.00,,,0.00,44.000000,,2013-07-18 03:22:00,
2013-07-17 20:32:00,101.0,50.0,-100.00,WSW,241,4.0,14.0,18,0.00,,,0.00,44.000000,,2013-07-18 03:32:00,
2013-07-17 20:43:00,101.0,50.0,-100.00,WSW,241,4.0,14.0,18,0.00,,,0.00,44.000000,,2013-07-18 03:43:00,
2013-07-17 21:12:00,95.0,52.0,-100.00,SW,229,3.0,6.0,24,0.00,,,0.00,1.000000,,2013-07-18 04:12:00,
2013-07-17 21:22:00,95.0,52.0,-100.00,SW,229,3.0,6.0,24,0.00,,,0.00,1.000000,,2013-07-18 04:22:00,
2013-07-17 21:32:00,95.0,52.0,-100.00,SW,229,3.0,6.0,24,0.00,,,0.00,1.000000,,2013-07-18 04:32:00,
2013-07-17 21:43:00,95.0,52.0,-100.00,SW,229,3.0,6.0,24,0.00,,,0.00,1.000000,,2013-07-18 04:43:00,
2013-07-17 22:11:00,93.0,48.0,-100.00,WSW,237,3.0,6.0,22,0.00,,,0.00,0.000000,,2013-07-18 05:11:00,
2013-07-17 22:21:00,93.0,48.0,-100.00,WSW,237,3.0,6.0,22,0.00,,,0.00,0.000000,,2013-07-18 05:21:00,
2013-07-17 22:32:00,93.0,48.0,-100.00,WSW,237,3.0,6.0,22,0.00,,,0.00,0.000000,,2013-07-18 05:32:00,
2013-07-17 22:42:00,93.0,48.0,-100.00,WSW,237,3.0,6.0,22,0.00,,,0.00,0.000000,,2013-07-18 05:42:00,
2013-07-17 23:11:00,92.0,52.0,-100.00,SSE,160,4.0,6.0,26,0.00,,,0.00,0.000000,,2013-07-18 06:11:00,
2013-07-17 23:22:00,92.0,52.0,-100.00,SSE,160,4.0,6.0,26,0.00,,,0.00,0.000000,,2013-07-18 06:22:00,
2013-07-17 23:32:00,92.0,52.0,-100.00,SSE,160,4.0,6.0,26,0.00,,,0.00,0.000000,,2013-07-18 06:32:00,
2013-07-17 23:43:00,92.0,52.0,-100.00,SSE,160,4.0,6.0,26,0.00,,,0.00,0.000000,,2013-07-18 06:43:00,